Wind_Speed
41 40 40 36 35 37 54 64 64 60 53 51 49 48 46 44 42 43 46 46 41 39 33 31 22 22 22 22 23 25 27 30 25 24 19 13 12 13 14 17 19 27 34
42 40 38 38 35 36 51 65 66 62 58 54 52 51 48 45 46 45 46 47 43 40 36 36 30 36 33 32 31 32 31 25 15 18 13 13 12 13 17 20 25 28 35
45 38 37 37 40 36 52 68 71 65 60 58 56 54 52 51 49 50 50 48 46 44 39 37 42 37 31 31 29 25 24 20 15 13 16 17 14 12 14 14 21 27 31
47 37 36 37 41 39 52 72 74 69 64 61 60 57 56 54 52 50 50 50 50 47 43 39 37 35 30 30 25 21 21 20 18 17 15 12 10 13 15 16 15 16 20
46 37 35 37 41 42 49 75 77 74 68 65 65 61 59 56 54 52 52 53 54 50 46 41 37 34 32 29 28 31 25 25 26 19 19 16 9 15 13 16 12 12 13
47 37 34 37 41 43 47 77 80 79 73 68 66 64 61 57 57 54 52 51 54 53 50 45 39 37 38 36 41 35 31 26 30 27 24 18 17 9 19 18 19 19 19
39 33 32 37 37 43 47 70 84 82 78 72 70 67 64 60 57 58 56 54 54 53 54 52 45 43 43 42 36 32 33 31 31 30 28 23 26 20 19 28 26 25 29
34 33 33 30 31 33 44 59 85 86 83 75 72 70 65 63 60 56 56 57 56 58 55 53 54 50 47 38 35 35 35 41 41 39 36 35 34 30 24 27 32 37 34
33 34 35 37 33 26 33 50 82 88 84 79 74 71 67 64 60 57 55 54 57 61 61 57 52 47 43 32 32 43 33 36 44 44 44 42 41 36 37 35 34 38 37
31 32 36 36 38 40 41 53 74 90 89 83 78 74 68 66 63 60 55 56 58 63 64 63 57 51 44 42 41 41 40 40 43 45 45 45 46 44 44 42 42 39 37
30 31 33 36 37 41 42 58 64 87 92 84 81 77 76 73 70 67 63 62 62 61 61 62 57 56 51 51 52 47 44 44 46 46 48 49 47 43 46 42 40 38 41
31 30 29 30 30 35 43 50 61 83 94 89 83 81 81 74 72 68 64 64 64 64 63 62 59 57 55 51 58 55 53 47 39 42 44 46 45 48 47 46 48 49 49
32 28 27 25 23 21 29 45 55 77 93 95 90 86 85 81 76 72 69 68 67 66 67 66 64 62 63 55 57 64 61 59 55 51 53 55 55 54 53 53 54 53 54
31 28 29 25 24 21 20 30 52 74 81 92 92 89 87 84 81 79 74 70 69 71 67 66 67 68 65 60 60 63 66 66 65 62 58 58 58 58 58 61 61 61 64
37 34 33 32 28 26 28 29 41 63 75 82 88 90 90 87 83 82 80 75 73 70 70 70 70 69 68 67 64 68 71 69 69 66 66 66 66 67 71 74 72 72 72
43 39 35 36 33 29 29 27 29 45 68 73 78 79 82 83 81 81 79 79 74 73 76 74 71 74 73 71 69 68 72 76 77 71 68 71 72 75 77 75 75 81 85
42 40 40 41 38 32 30 29 30 32 46 63 70 72 72 72 73 71 70 68 68 69 73 74 77 78 75 72 73 72 69 72 77 77 76 79 79 82 85 81 79 78 85
44 45 44 44 43 41 39 38 36 37 41 43 53 67 69 68 68 68 66 67 65 63 65 66 67 70 69 70 70 66 67 69 73 75 77 78 84 85 85 84 83 84 85
47 45 50 48 48 47 46 46 45 45 45 46 46 50 52 55 58 61 61 62 62 61 61 63 66 68 70 72 72 72 74 77 77 79 82 86 81 80 86 83 83 84 85
41 42 45 52 54 52 51 51 51 51 51 47 48 54 56 61 61 61 62 63 63 65 67 68 69 70 72 76 79 83 85 86 83 84 90 92 96 94 92 91 94 96 96
47 34 39 43 45 55 53 53 56 56 56 53 55 55 55 58 62 64 68 70 70 72 73 74 76 77 78 79 80 84 85 87 90 93 97 99 102 104 104 98 101 100 102
51 49 49 45 40 36 45 54 57 56 58 58 60 59 61 62 64 64 67 68 69 71 73 75 77 80 83 85 85 88 90 90 91 94 96 97 98 99 98 102 102 103 103
49 51 46 46 45 47 45 47 49 53 57 56 59 59 61 64 66 67 67 70 72 75 76 77 78 79 79 81 84 87 89 91 93 94 96 96 96 98 100 100 100 101 102
55 56 51 51 51 49 52 45 49 50 52 55 59 61 61 61 64 65 65 66 68 70 73 78 79 79 83 84 86 88 90 91 91 92 91 92 94 96 98 98 98 96 96
57 63 64 54 51 49 47 45 47 50 52 57 57 62 64 65 62 63 66 69 69 71 73 75 77 81 83 83 83 82 82 83 84 84 86 89 90 87 84 81 79 80 82
69 67 60 61 61 58 56 53 53 54 53 54 57 62 66 66 66 67 66 68 70 70 70 74 75 74 72 75 76 79 80 80 79 80 80 80 79 80 80 79 79 79 79
Wind_Direction
287 281 279 274 264 242 217 210 210 212 212 212 214 210 211 209 206 207 205 201 197 201 199 203 204 213 250 237 230 244 266 268 268 262 258 248 246 266 279 299 316 335 347
286 279 272 271 261 242 214 207 206 209 207 208 213 212 209 208 207 206 205 205 205 204 205 211 206 232 232 237 247 255 266 260 253 248 222 228 253 282 293 306 341 346 356
285 278 266 262 260 243 215 207 205 205 207 207 206 210 208 206 208 208 211 211 209 212 212 216 218 222 231 238 248 256 259 253 256 252 242 250 252 265 291 318 344 347 352
281 276 263 257 255 242 215 208 204 202 206 205 205 205 207 207 209 210 213 213 213 216 220 228 221 225 229 235 248 253 259 232 238 236 234 237 260 257 278 298 339 347 343
279 269 258 254 252 240 219 206 206 202 203 206 204 204 205 207 211 212 215 218 217 219 222 219 222 226 226 233 252 257 249 235 232 247 233 234 261 242 257 275 301 311 331
274 263 256 253 249 241 226 207 207 203 203 203 206 206 204 205 210 215 216 218 220 221 218 220 223 224 229 246 252 252 251 250 236 241 235 235 240 274 259 251 268 283 295
268 259 252 252 244 241 234 212 207 205 203 203 206 205 205 207 209 212 214 216 215 219 220 224 225 232 238 246 250 247 249 252 250 244 246 243 253 255 276 263 264 281 285
259 252 244 238 243 243 236 221 208 206 203 203 204 204 206 208 211 212 213 217 218 220 223 228 230 234 240 243 250 253 253 252 253 251 246 247 255 252 264 257 270 277 279
247 244 241 235 236 239 233 222 208 206 205 203 205 205 207 208 213 215 215 218 218 219 221 225 231 232 238 236 238 248 248 252 250 250 247 254 256 259 257 266 278 274 279
241 235 235 237 232 232 231 218 209 208 205 204 207 207 208 211 212 216 218 218 219 223 222 227 232 235 229 235 227 227 239 254 253 256 258 258 257 256 257 264 277 280 281
235 227 228 235 235 230 233 223 210 207 205 205 209 210 210 210 213 215 220 220 223 224 228 230 230 228 223 231 229 231 240 246 247 252 257 257 261 261 261 269 271 273 278
241 226 228 235 232 230 226 225 216 205 206 205 210 212 211 213 217 219 221 224 225 227 229 231 230 231 232 240 232 234 242 244 250 247 252 255 258 264 268 272 274 273 281
242 231 226 230 219 214 229 224 218 205 207 207 209 212 214 215 219 220 222 225 227 228 230 233 233 231 235 243 242 237 244 248 253 256 256 259 262 264 266 269 270 272 276
234 232 224 221 216 209 218 222 218 208 207 212 213 215 218 219 222 224 226 227 228 231 232 235 236 234 244 246 248 246 246 251 255 258 256 258 260 263 263 265 265 267 270
230 231 223 225 211 211 219 210 220 214 212 215 215 218 221 223 225 227 228 231 232 233 232 234 235 238 245 248 247 249 251 255 256 260 265 263 261 262 263 266 267 266 267
222 230 223 223 215 210 210 225 219 221 217 216 218 219 224 227 229 232 233 235 236 235 235 238 240 243 247 250 253 252 254 257 260 263 264 263 264 263 263 266 269 267 268
214 221 222 216 213 212 218 218 226 231 222 224 226 226 225 227 232 233 236 239 240 241 241 242 245 250 254 254 256 259 258 257 259 262 264 265 267 268 268 270 271 272 271
217 217 226 216 213 212 217 220 224 223 227 229 228 230 233 236 238 240 240 239 240 240 240 243 245 248 248 247 247 249 251 254 258 260 262 262 265 265 267 268 268 270 270
244 237 227 230 221 217 221 219 219 220 221 224 226 224 233 236 235 235 233 233 234 236 238 240 243 245 246 246 248 251 252 253 257 255 255 259 258 258 260 261 262 263 265
236 240 240 228 230 230 228 226 224 221 220 222 227 230 234 233 232 229 228 231 234 236 237 239 242 245 247 250 251 252 253 255 256 257 257 260 261 263 266 265 266 265 269
237 242 243 242 236 232 232 233 235 230 229 231 230 228 232 236 237 239 239 240 242 244 243 244 246 249 250 251 253 254 257 259 260 262 262 262 262 264 266 269 271 274 274
237 243 248 256 243 240 234 237 237 238 239 239 238 239 238 237 238 238 240 241 243 245 248 249 249 250 253 255 256 258 260 261 263 264 265 267 269 272 273 274 275 277 279
236 239 237 236 244 252 251 243 238 235 234 235 239 241 245 244 246 248 249 251 251 251 252 254 255 257 257 258 260 262 265 266 268 269 271 272 272 271 273 273 274 276 278
238 242 244 250 255 257 253 258 247 252 247 242 239 242 242 247 250 251 251 250 253 254 255 258 259 260 262 263 264 265 267 268 269 270 270 270 270 270 272 274 276 277 279
243 249 254 244 250 258 257 255 246 245 246 247 243 241 243 244 245 248 251 250 252 255 256 257 257 259 263 265 265 266 267 268 269 271 273 272 274 277 277 277 280 282 282
245 246 243 250 252 254 250 249 252 244 245 248 245 244 244 246 248 250 251 252 254 256 258 260 262 263 264 264 269 271 273 275 276 277 276 276 279 280 283 285 288 288 288
Height
10810 10807 10804 10806 10805 10806 10812 10826 10837 10847 10856 10867 10874 10879 10886 10891 10898 10902 10909 10914 10918 10926 10930 10934 10937 10941 10944 10946 10948 10949 10948 10946 10945 10943 10943 10945 10946 10947 10947 10947 10945 10938 10928
10795 10794 10791 10790 10794 10796 10803 10815 10825 10836 10843 10856 10867 10873 10879 10888 10893 10899 10904 10911 10917 10920 10924 10928 10931 10937 10938 10942 10944 10945 10944 10942 10941 10938 10937 10939 10942 10945 10944 10943 10940 10935 10925
10780 10781 10780 10779 10779 10785 10792 10800 10812 10823 10836 10846 10854 10864 10870 10875 10882 10890 10898 10905 10910 10914 10918 10922 10925 10929 10933 10936 10939 10941 10940 10940 10940 10937 10936 10936 10937 10938 10938 10939 10936 10932 10926
10764 10766 10766 10766 10768 10773 10780 10790 10800 10811 10822 10830 10841 10850 10859 10866 10871 10880 10888 10895 10902 10907 10913 10917 10921 10924 10927 10930 10932 10934 10934 10934 10936 10936 10934 10932 10932 10934 10935 10933 10933 10930 10927
10748 10751 10752 10753 10754 10760 10767 10778 10790 10798 10809 10820 10827 10838 10849 10857 10863 10870 10877 10886 10893 10899 10904 10908 10912 10917 10920 10923 10924 10927 10928 10928 10929 10931 10931 10929 10928 10928 10928 10929 10929 10927 10927
10733 10736 10739 10739 10741 10746 10754 10764 10777 10785 10796 10806 10819 10830 10838 10846 10852 10863 10869 10875 10882 10890 10895 10899 10903 10907 10910 10914 10918 10920 10922 10923 10922 10924 10925 10924 10924 10924 10925 10923 10924 10924 10923
10719 10722 10724 10726 10726 10731 10739 10750 10762 10773 10784 10795 10806 10818 10826 10832 10842 10850 10858 10865 10872 10880 10886 10890 10894 10898 10904 10906 10909 10911 10914 10916 10917 10918 10918 10918 10918 10918 10919 10920 10918 10918 10918
10707 10708 10710 10713 10715 10719 10726 10736 10747 10760 10771 10784 10796 10804 10813 10822 10831 10840 10848 10855 10862 10869 10875 10880 10884 10888 10892 10897 10901 10902 10904 10906 10908 10911 10911 10911 10910 10911 10912 10912 10914 10912 10911
10693 10695 10698 10700 10705 10708 10711 10720 10734 10748 10762 10774 10784 10793 10803 10813 10823 10832 10839 10846 10851 10856 10862 10868 10873 10879 10882 10889 10892 10892 10895 10895 10898 10899 10900 10901 10901 10903 10903 10904 10904 10903 10903
10681 10684 10686 10691 10693 10694 10698 10706 10718 10734 10750 10763 10775 10784 10793 10803 10810 10820 10827 10832 10838 10843 10851 10856 10863 10869 10875 10878 10879 10881 10883 10884 10887 10888 10890 10892 10892 10892 10893 10894 10895 10892 10893
10669 10673 10676 10679 10682 10686 10689 10694 10704 10722 10738 10751 10762 10772 10780 10787 10794 10800 10809 10817 10823 10831 10837 10843 10849 10853 10860 10864 10866 10870 10870 10870 10872 10876 10877 10879 10880 10881 10881 10883 10884 10882 10882
10658 10662 10667 10670 10672 10675 10679 10685 10695 10710 10722 10735 10746 10757 10766 10776 10782 10790 10797 10804 10810 10817 10825 10829 10836 10841 10844 10848 10853 10856 10856 10859 10859 10863 10864 10865 10868 10869 10869 10870 10871 10871 10869
10648 10654 10658 10662 10665 10668 10673 10677 10685 10696 10708 10717 10727 10739 10752 10762 10770 10777 10783 10790 10798 10804 10810 10816 10824 10829 10831 10833 10837 10842 10843 10845 10847 10850 10851 10852 10854 10856 10856 10857 10856 10856 10854
10641 10645 10651 10655 10658 10661 10666 10671 10677 10684 10694 10708 10719 10729 10737 10747 10756 10764 10771 10777 10784 10790 10798 10804 10808 10813 10816 10820 10824 10828 10830 10831 10832 10832 10835 10838 10839 10839 10840 10841 10838 10840 10839
10635 10639 10644 10648 10650 10654 10660 10663 10669 10676 10686 10697 10707 10716 10725 10735 10743 10751 10757 10765 10771 10779 10785 10788 10793 10799 10801 10804 10808 10810 10813 10812 10816 10819 10820 10821 10822 10822 10822 10823 10822 10820 10820
10626 10631 10636 10641 10645 10648 10653 10660 10665 10671 10678 10688 10697 10706 10716 10724 10732 10739 10745 10750 10757 10764 10767 10773 10780 10781 10782 10787 10789 10792 10796 10797 10799 10799 10800 10803 10804 10804 10802 10802 10803 10801 10799
10617 10624 10628 10633 10638 10642 10647 10653 10660 10666 10671 10680 10689 10698 10705 10712 10719 10725 10731 10736 10742 10746 10751 10756 10759 10761 10768 10768 10767 10775 10776 10778 10779 10779 10780 10780 10780 10780 10780 10779 10778 10779 10778
10608 10615 10620 10626 10631 10635 10640 10645 10652 10658 10665 10671 10678 10685 10692 10698 10704 10710 10716 10721 10726 10730 10734 10738 10742 10744 10746 10749 10750 10753 10755 10757 10757 10758 10759 10758 10757 10757 10757 10756 10754 10754 10753
10598 10606 10612 10617 10622 10626 10631 10637 10642 10649 10655 10662 10668 10675 10680 10685 10690 10695 10701 10706 10710 10713 10716 10719 10722 10726 10729 10731 10732 10734 10735 10736 10738 10738 10737 10736 10736 10734 10732 10731 10730 10728 10727
10592 10595 10600 10606 10611 10616 10622 10627 10632 10638 10643 10650 10657 10664 10669 10674 10678 10682 10685 10689 10692 10695 10697 10700 10703 10705 10708 10710 10712 10714 10714 10714 10716 10716 10716 10715 10714 10711 10708 10707 10705 10701 10699
10582 10586 10589 10595 10601 10606 10611 10616 10620 10626 10631 10636 10642 10647 10653 10659 10662 10666 10670 10674 10676 10680 10681 10683 10685 10687 10689 10691 10691 10691 10692 10693 10694 10694 10693 10690 10688 10685 10683 10679 10679 10678 10674
10573 10577 10581 10585 10590 10595 10599 10604 10608 10613 10617 10621 10626 10630 10635 10640 10643 10648 10651 10654 10657 10659 10661 10663 10664 10664 10667 10669 10669 10669 10669 10670 10668 10665 10662 10661 10658 10656 10655 10653 10649 10647 10643
10563 10566 10569 10574 10579 10582 10585 10590 10593 10597 10601 10605 10608 10612 10616 10620 10624 10628 10631 10633 10635 10637 10638 10639 10641 10643 10644 10643 10643 10643 10641 10640 10639 10636 10635 10634 10630 10628 10624 10621 10619 10616 10611
10548 10553 10557 10560 10564 10567 10570 10573 10577 10580 10584 10588 10591 10596 10598 10602 10605 10608 10610 10612 10614 10614 10615 10617 10617 10617 10619 10619 10618 10618 10615 10614 10611 10609 10606 10604 10602 10597 10597 10593 10589 10583 10579
10537 10540 10544 10546 10550 10553 10555 10558 10560 10564 10567 10570 10573 10576 10579 10582 10584 10587 10589 10590 10592 10592 10593 10594 10596 10595 10593 10592 10590 10591 10588 10588 10584 10583 10579 10578 10577 10573 10568 10564 10558 10554 10550
10522 10526 10529 10533 10536 10538 10541 10543 10545 10547 10550 10552 10555 10557 10560 10563 10565 10566 10568 10568 10571 10571 10571 10572 10572 10570 10569 10568 10568 10567 10566 10564 10562 10559 10556 10552 10548 10544 10541 10538 10533 10528 10524